Left ArrowRight Arrow

44.8408, -93.29828

Hourly Observations for June 20, 2024

Temp ( °F °C ) Dew Point ( °F °C ) Humidity (%) Winds ( mph kmh ) Pressure ( in mb ) Visibility ( mi km ) Precip ( " mm )
12:53 am 00:53 Partly Cloudy 62 16.7 54 12.2 75 75 NNE 6 9 30.31 1027 10 16 0.00 0.00
1:53 am 01:53 Mostly Clear 61 16.1 53 11.7 75 75 NNE 3 6 30.32 1027 10 16 0.00 0.00
2:53 am 02:53 Partly Cloudy 62 16.7 54 12.2 75 75 NNW 3 6 30.35 1028 10 16 0.00 0.00
3:53 am 03:53 Mostly Clear 61 16.1 54 12.2 78 78 N 3 6 30.35 1028 10 16 0.00 0.00
4:53 am 04:53 Mostly Cloudy 62 16.7 54 12.2 75 75 E 7 11 30.33 1027 10 16 0.00 0.00
5:53 am 05:53 Mostly Cloudy 62 16.7 52 11.1 70 70 ENE 5 7 30.35 1028 10 16 0.00 0.00
6:53 am 06:53 Cloudy 63 17.2 51 10.6 65 65 ENE 6 9 30.35 1028 10 16 0.00 0.00
7:53 am 07:53 Cloudy 63 17.2 50 10 63 63 E 8 13 30.35 1028 10 16 0.00 0.00
8:53 am 08:53 Mostly Cloudy 64 17.8 50 10 60 60 ENE 10 17 30.33 1027 10 16 0.00 0.00
9:53 am 09:53 Mostly Cloudy 64 17.8 51 10.6 63 63 E 13 20 30.33 1027 10 16 0.00 0.00
10:53 am 10:53 Cloudy 64 17.8 52 11.1 65 65 ENE 7 11 30.33 1027 10 16 0.00 0.00
11:53 am 11:53 Cloudy 66 18.9 53 11.7 63 63 VRB 5 7 30.35 1028 10 16 0.00 0.00
12:53 pm 12:53 Cloudy 66 18.9 55 12.8 68 68 E 10 17 30.32 1027 10 16 0.01 0.13
1:53 pm 13:53 Cloudy with Light Rain 65 18.3 56 13.3 73 73 NNW 5 7 30.35 1028 9 14 0.01 0.13
2:53 pm 14:53 Cloudy with Light Rain 64 17.8 59 15 84 84 NE 8 13 30.34 1027 10 16 0.02 0.51
3:53 pm 15:53 Cloudy 65 18.3 59 15 81 81 NNE 9 15 30.32 1027 10 16 0.01 0.13
4:53 pm 16:53 Mostly Cloudy 66 18.9 59 15 78 78 ENE 8 13 30.28 1025 10 16 0.00 0.00
5:53 pm 17:53 Mostly Cloudy 65 18.3 59 15 81 81 NNE 7 11 30.28 1025 10 16 0.00 0.00
6:53 pm 18:53 Mostly Cloudy 65 18.3 59 15 81 81 ENE 5 7 30.29 1026 10 16 0.00 0.00
7:41 pm 19:41 Cloudy with Light Rain 64 17.8 60 15.6 87 87 NW 5 7 30.28 1026 5 8 0.01 0.13
7:53 pm 19:53 Cloudy with Mist and Fog 64 17.8 60 15.6 87 87 VRB 3 6 30.30 1026 5 8 0.01 0.13
8:53 pm 20:53 Cloudy 64 17.8 58 14.4 80 80 ENE 5 7 30.27 1025 10 16 0.00 0.00
9:53 pm 21:53 Mostly Cloudy 64 17.8 59 15 84 84 NE 6 9 30.26 1025 10 16 0.00 0.00
10:53 pm 22:53 Cloudy 64 17.8 58 14.4 80 80 ESE 10 17 30.23 1024 10 16 0.00 0.00
11:53 pm 23:53 Cloudy 64 17.8 58 14.4 80 80 NE 5 7 30.24 1024 10 16 0.00 0.00

Powered by Vaisala Xweather